Regional Weather Roundup
Issued by NWS Sterling, VA

Home | Current Version | Previous Version | Graphics & Text | Print | Product List | Glossary On
Versions: 1 2 3 4 5 6 7 8 9 10 11 12 13 14 15 16 17 18 19 20 21 22 23 24 25 26 27 28 29 30 31 32 33 34 35 36 37 38 39 40 41 42 43 44 45 46 47 48 49 50
000
ASUS41 KLWX 241410
RWRLWX

REGIONAL WEATHER ROUNDUP
NATIONAL WEATHER SERVICE BALTIMORE MD/WASHINGTON DC
900 AM EST WED DEC 24 2014

Note: "FAIR" indicates few or no clouds below 12,000 feet
with no significant weather and/or obstructions to visibility.
 TC=TEMPERATURE CELSIUS

 * =Non NWS site. Station does not report precipitation (e.g. rain,
    snow, etc.), thunder, or fog.

DCZ001-MDZ009-015-VAZ040>042-051-053>054-241500-
WASHINGTON METRO

CITY           SKY/WX    TMP DP  RH WIND       PRES   REMARKS
WASHINGTON NAT LGT RAIN  48  46  93 CALM      29.86S FOG
DULLES         LGT RAIN  43  43 100 CALM      29.84F
ANDREWS AFB    LGT RAIN  46  46 100 E2        29.84F FOG
FT BELVOIR     LGT RAIN  46  46 100 NW1       29.86F FOG
QUANTICO       LGT RAIN  45  43  93 NW3       29.86F
COLLEGE PARK*  CLOUDY    46  46 100 CALM      29.85S
LEESBURG*      LGT RAIN  45  45 100 CALM      29.85F
MANASSAS*      RAIN      45  45 100 CALM      29.86F
GAITHERSBURG*  CLOUDY    46  45  93 CALM      29.88S

$$

MDZ006>007-011-014-241500-
BALTIMORE METRO

CITY           SKY/WX    TMP DP  RH WIND       PRES   REMARKS
BWI AIRPORT    LGT RAIN  47  47 100 E3        29.85F VSB 1
MD SCIENCE CTR   N/A     46  46 100 MISG      29.85F
MARTIN STATE   RAIN      48  48 100 NE3       29.87F
ANNAPOLIS      LGT RAIN  45  45 100 CALM      29.85F VSB 1/4
FORT MEADE*    CLOUDY    46  45  93 CALM      29.87F

$$

MDZ012-015-019>023-241500-
MARYLAND EASTERN SHORE

CITY           SKY/WX    TMP DP  RH WIND       PRES   REMARKS
OCEAN CITY     LGT RAIN  53  52  96 S8        29.88S VSB 1/4
SALISBURY      LGT RAIN  61  58  90 SE12      29.87F VSB 3/4
BAY BRIDGE AP* RAIN      46  46 100 CALM      29.86S
CAMBRIDGE*     CLOUDY    55  54  94 SE8       29.85F
EASTON*        DRZL/FOG  55  55 100 SE7       29.89S VSB 1

$$

MDZ017>025-241500-
SOUTHERN MARYLAND

CITY           SKY/WX    TMP DP  RH WIND       PRES   REMARKS
PATUXENT RIVER LGT RAIN  50  48  93 SE9       29.83F VSB 1
ST INIGOES     HVY RAIN  54  52  93 E8        29.83F FOG
LEONARDTOWN*   CLOUDY    52  50  93 SE6       29.86F VSB 1/2

$$

MDZ003>005-241500-
NORTH CENTRAL MARYLAND

CITY           SKY/WX    TMP DP  RH WIND       PRES   REMARKS
FREDERICK*     NOT AVBL
HAGERSTOWN APT LGT RAIN  46  43  89 CALM      29.82F FOG
WESTMINSTER*   RAIN      46  46 100 CALM      29.84S

$$

MDZ501>502-241500-
WESTERN MARYLAND

CITY           SKY/WX    TMP DP  RH WIND       PRES   REMARKS
OAKLAND*       FOG       37 N/A N/A SE17G23   29.71S VSB<1/4 WCI  28
CUMBERLAND*    CLOUDY    37  37 100 CALM      29.84F VSB 1/2

$$

VAZ025>031-241500-
SHENANDOAH VALLEY

CITY           SKY/WX    TMP DP  RH WIND       PRES   REMARKS
WINCHESTER*    LGT RAIN  41  37  87 CALM      29.81F VSB 3/4
FRONT ROYAL*   CLOUDY    39  39 100 CALM      29.80F
LURAY*         LGT RAIN  41  41 100 CALM      29.81F
NEW MARKET*    CLOUDY    39  39  99 CALM      29.81S
STAUNTON*      LGT RAIN  42  40  93 CALM      29.82F
WAYNESBORO*    CLOUDY    40  40  99 CALM      29.79F

$$

WVZ021-048>050-054>055-241500-
EASTERN WEST VIRGINIA PANHANDLE

CITY           SKY/WX    TMP DP  RH WIND       PRES   REMARKS
MARTINSBURG    LGT RAIN  42  39  89 CALM      29.81F FOG
PETERSBURG*    DRIZZLE   38  37  97 CALM      29.83S

$$

VAZ036>039-050-241500-
CENTRAL FOOTHILLS

CITY           SKY/WX    TMP DP  RH WIND       PRES   REMARKS
CHARLOTTESVILL LGT RAIN  44  42  93 CALM      29.83F FOG
CULPEPER*      RAIN      45  45 100 CALM      29.85F
ORANGE*        RAIN      45  43  93 CALM      29.85F
GORDONSVILLE*  CLOUDY    43  43  99 CALM      29.84F FOG
WARRENTON*     LGT RAIN  45  45 100 CALM      29.84F

$$

VAZ055>057-241500-
NORTH AND CENTRAL PIEDMONT

CITY           SKY/WX    TMP DP  RH WIND       PRES   REMARKS
FREDERICKSBRG* RAIN      46  46 100 CALM      29.84F
STAFFORD*      RAIN      44  44 100 CALM      29.89F

$$

NCZ024-NYZ072-PAZ021-071-VAZ022-071-241500-
OTHER REGIONAL OBSERVATIONS

CITY           SKY/WX    TMP DP  RH WIND       PRES   REMARKS
NEW YORK CITY  CLOUDY    44  43  96 VRB6      29.99R FOG
PHILADELPHIA   LGT RAIN  50  48  93 E7        29.90S FOG
PITTSBURGH     CLOUDY    51  50  96 SE3       29.64F
ROANOKE        LGT RAIN  44  42  93 CALM      29.84S
RICHMOND       RAIN      48  46  93 CALM      29.84F VSB 1
RALEIGH        LGT RAIN  49  47  93 W14       29.85R FOG

$$

ANZ530>537-241500-
MARINE OBSERVATIONS

STATION/POSITION TIME  TEMP    WIND        PRES
                       AIR SEA DIR/SP/G
                 (UTC) (F)     (DEG/KT/KT) (MB)
THOMAS PT LIGHT  1400   47 41   CALM  /  2 1011.8F
BALT KEY BRIDGE  1400   47      60/  4/  5 1010.6F
COVE POINT       1400   48     190/ 13/ 13 1010.4F
LEWISETTA        1400   54 41  160/  6/  7 1009.8F
SOLOMONS ISLAND  1400      43                N/A
PINEY POINT      1300          100/  9/ 10   N/A

$$




USA.gov is the U.S. government's official web portal to all federal, state and local government web resources and services.